Hourly Data Report for September 10, 2020

LOURDES DE BLANC SABLON A
QUEBEC
Current Station Operator: NAVCAN

51°26'31.000" N
57°11'10.000" W
37.20 m
7040815
71808
YBX

Download Data

Hourly Data (September 2020)
Hourly Data Report for September 10, 2020
TIME Temp Definition
°C
Dew Point Definition
°C
Rel Hum Definition
%
Wind Dir Definition
10's deg

Wind Spd Definition
km/h
Visibility Definition
km
Stn Press Definition
kPa
Hmdx Definition


Wind Chill Definition


Weather Definition


00:00 10.3 8.2 87 28 8 24.1 102.13     LegendNANA
01:00 10.8 8.1 83 30 10 24.1 102.12     LegendNANA
02:00 10.3 7.8 84 36 1 24.1 102.15     Cloudy
03:00 9.9 8.8 93 26 8 24.1 102.15     LegendNANA
04:00 9.8 8.8 93 28 7 24.1 102.14     LegendNANA
05:00 9.6 7.8 88 28 5 24.1 102.17     Cloudy
06:00 9.6 7.6 87 36 1 24.1 102.23     LegendNANA
07:00 10.8 8.5 85 22 3 24.1 102.28     LegendNANA
08:00 11.9 7.2 73 36 2 24.1 102.22     Mostly Cloudy
09:00 12.0 8.4 79 25 9 24.1 102.19     LegendNANA
10:00 11.9 7.9 77 28 11 24.1 102.20     LegendNANA
11:00 12.3 7.7 73 24 8 24.1 102.12     Cloudy
12:00 11.7 8.8 82 21 10 24.1 102.07     LegendNANA
13:00 12.4 9.2 81 21 12 24.1 102.02     LegendNANA
14:00 11.9 9.9 88 23 15 24.1 102.00     Rain
15:00 11.0 9.2 89 22 16 24.1 101.92     Rain
16:00 10.4 9.0 91 24 13 9.7 101.85     Rain,Fog
17:00 9.8 9.0 95 27 8 6.4 101.81     Rain,Fog
18:00 9.4 8.9 97 27 7 6.4 101.80     Rain,Fog
19:00 9.2 8.6 96 36 3 19.3 101.69     Rain
20:00 9.1 8.7 97 36 4 24.1 101.64     Rain
21:00 8.9 8.3 96 4 7 24.1 101.57     LegendNANA
22:00 8.8 8.3 96 1 5 24.1 101.50     Rain
23:00 8.2 7.5 95 7 16 24.1 101.45     Rain

Notes on Data Quality.

Legend

  • E = Estimated
  • M = Missing
  • NA = Not Available*
  • [empty] = Indicates an unobserved value
Date modified: